Location: Devore Heights
(34.2372°N, 117.4156°W)
Time: 18:13:50
(UTC+00:00)

Vanguard 1 Rocket - Pass Details

Date: 17 September 2024
Orbit: 650 x 4218 km, 34.3° (Epoch: 04 October)

Event Time Altitude Azimuth Distance (km) Brightness Sun altitude
Rises 07:41:56 0° 185° (S) 4,098 - -53.7°
Reaches altitude 10° 07:45:23 10° 167° (SSE) 3,574 - -53.7°
Maximum altitude 07:51:38 19° 125° (SE) 3,686 - -53.7°
Exits shadow 07:57:37 14° 97° (E) 4,762 11.0 -53.6°
Drops below altitude 10° 08:00:38 10° 88° (E) 5,452 11.4 -53.5°
Sets 08:07:58 0° 74° (ENE) 7,205 12.2 -53.3°
